TimeEST,TemperatureF,Dew PointF,Humidity,Sea Level PressureIn,VisibilityMPH,Wind Direction,Wind SpeedMPH,Gust SpeedMPH,PrecipitationIn,Events,Conditions,WindDirDegrees,DateUTC
12:15 AM,27.9,24.6,88,30.40,7.0,Calm,Calm,-,N/A,,Clear,0,2013-03-09 05:15:00
12:35 AM,27.7,24.4,88,30.40,7.0,Calm,Calm,-,N/A,,Clear,0,2013-03-09 05:35:00
12:55 AM,28.0,24.8,88,30.40,7.0,Calm,Calm,-,N/A,,Clear,0,2013-03-09 05:55:00
1:15 AM,28.0,24.8,88,30.40,7.0,Calm,Calm,-,N/A,,Clear,0,2013-03-09 06:15:00
1:35 AM,28.4,25.2,88,30.40,10.0,Calm,Calm,-,N/A,,Clear,0,2013-03-09 06:35:00
1:55 AM,28.4,25.2,88,30.40,7.0,Calm,Calm,-,N/A,,Clear,0,2013-03-09 06:55:00
2:15 AM,28.2,24.8,87,30.40,7.0,Calm,Calm,-,N/A,,Clear,0,2013-03-09 07:15:00
2:35 AM,27.5,24.4,88,30.39,7.0,Calm,Calm,-,N/A,,Clear,0,2013-03-09 07:35:00
2:55 AM,27.5,24.4,88,30.38,7.0,Calm,Calm,-,N/A,,Clear,0,2013-03-09 07:55:00
3:15 AM,27.1,24.3,89,30.38,7.0,Calm,Calm,-,N/A,,Clear,0,2013-03-09 08:15:00
3:35 AM,26.6,23.7,89,30.37,7.0,Calm,Calm,-,N/A,,Clear,0,2013-03-09 08:35:00
3:55 AM,26.2,23.4,89,30.36,7.0,Calm,Calm,-,N/A,,Clear,0,2013-03-09 08:55:00
4:15 AM,25.9,23.0,89,30.36,7.0,Calm,Calm,-,N/A,,Clear,0,2013-03-09 09:15:00
4:35 AM,25.7,23.0,89,30.35,7.0,Calm,Calm,-,N/A,,Clear,0,2013-03-09 09:35:00
4:55 AM,25.7,23.0,89,30.36,7.0,Calm,Calm,-,N/A,,Clear,0,2013-03-09 09:55:00
5:15 AM,25.9,23.2,90,30.35,7.0,Calm,Calm,-,N/A,,Clear,0,2013-03-09 10:15:00
5:35 AM,25.3,22.6,89,30.35,7.0,Calm,Calm,-,N/A,,Clear,0,2013-03-09 10:35:00
5:55 AM,25.7,23.0,89,30.36,7.0,Calm,Calm,-,N/A,,Clear,0,2013-03-09 10:55:00
6:15 AM,25.7,23.0,89,30.36,5.0,Calm,Calm,-,N/A,,Clear,0,2013-03-09 11:15:00
6:35 AM,25.3,22.6,89,30.36,5.0,Calm,Calm,-,N/A,,Clear,0,2013-03-09 11:35:00
6:55 AM,25.3,22.8,90,30.36,4.0,Calm,Calm,-,N/A,,Clear,0,2013-03-09 11:55:00
7:15 AM,25.5,23.0,90,30.35,4.0,Calm,Calm,-,N/A,,Clear,0,2013-03-09 12:15:00
7:35 AM,26.2,23.7,90,30.35,4.0,Calm,Calm,-,N/A,,Clear,0,2013-03-09 12:35:00
7:55 AM,28.2,25.5,90,30.35,7.0,ESE,3.5,-,N/A,,Clear,120,2013-03-09 12:55:00
8:15 AM,32.0,27.3,83,30.35,10.0,SE,3.5,-,N/A,,Clear,130,2013-03-09 13:15:00
8:35 AM,34.2,27.3,76,30.35,10.0,SE,5.8,-,N/A,,Clear,130,2013-03-09 13:35:00
8:55 AM,36.0,27.3,71,30.35,10.0,SE,6.9,-,N/A,,Clear,130,2013-03-09 13:55:00
9:15 AM,37.4,27.1,66,30.35,10.0,SSE,8.1,-,N/A,,Clear,160,2013-03-09 14:15:00
9:35 AM,38.3,27.3,65,30.35,10.0,SSE,9.2,-,N/A,,Clear,150,2013-03-09 14:35:00
9:55 AM,37.8,26.6,64,30.34,10.0,South,8.1,-,N/A,,Clear,170,2013-03-09 14:55:00
10:15 AM,39.4,27.1,62,30.33,10.0,ESE,6.9,-,N/A,,Clear,120,2013-03-09 15:15:00
10:35 AM,39.6,27.1,61,30.33,10.0,SE,8.1,-,N/A,,Clear,140,2013-03-09 15:35:00
10:55 AM,41.0,27.3,58,30.32,10.0,ESE,8.1,-,N/A,,Clear,110,2013-03-09 15:55:00
11:15 AM,43.0,27.7,55,30.31,10.0,SSE,4.6,-,N/A,,Clear,150,2013-03-09 16:15:00
11:35 AM,43.7,27.7,53,30.31,10.0,SE,8.1,-,N/A,,Clear,140,2013-03-09 16:35:00
11:55 AM,43.9,28.0,54,30.31,10.0,SE,8.1,-,N/A,,Clear,130,2013-03-09 16:55:00
12:15 PM,45.0,27.7,51,30.30,10.0,SE,9.2,-,N/A,,Clear,130,2013-03-09 17:15:00
12:35 PM,45.0,28.0,52,30.30,10.0,SSE,3.5,-,N/A,,Clear,160,2013-03-09 17:35:00
12:55 PM,46.0,28.6,51,30.29,10.0,South,5.8,-,N/A,,Clear,170,2013-03-09 17:55:00
1:15 PM,46.9,27.7,47,30.27,10.0,ESE,5.8,-,N/A,,Clear,120,2013-03-09 18:15:00
1:35 PM,46.4,29.7,52,30.25,10.0,SE,8.1,-,N/A,,Clear,130,2013-03-09 18:35:00
1:55 PM,45.9,31.1,56,30.23,10.0,East,4.6,-,N/A,,Clear,80,2013-03-09 18:55:00
2:15 PM,45.1,31.3,58,30.22,10.0,East,8.1,-,N/A,,Clear,90,2013-03-09 19:15:00
2:35 PM,43.7,31.6,63,30.21,10.0,ENE,10.4,-,N/A,,Clear,70,2013-03-09 19:35:00
2:55 PM,42.8,31.3,64,30.20,10.0,East,10.4,-,N/A,,Clear,100,2013-03-09 19:55:00
3:15 PM,42.4,30.9,64,30.20,10.0,East,6.9,-,N/A,,Clear,100,2013-03-09 20:15:00
3:35 PM,42.1,31.3,66,30.18,10.0,ENE,8.1,-,N/A,,Clear,70,2013-03-09 20:35:00
3:55 PM,42.1,31.3,66,30.17,10.0,ENE,6.9,-,N/A,,Clear,70,2013-03-09 20:55:00
4:15 PM,42.4,30.9,64,30.17,10.0,ENE,8.1,-,N/A,,Clear,70,2013-03-09 21:15:00
4:35 PM,42.3,30.9,64,30.17,10.0,East,8.1,-,N/A,,Clear,90,2013-03-09 21:35:00
4:55 PM,41.4,30.9,66,30.16,10.0,East,8.1,-,N/A,,Clear,80,2013-03-09 21:55:00
5:15 PM,40.1,30.4,68,30.16,10.0,East,6.9,-,N/A,,Clear,90,2013-03-09 22:15:00
5:35 PM,38.7,29.8,71,30.15,10.0,East,6.9,-,N/A,,Clear,90,2013-03-09 22:35:00
5:55 PM,37.8,29.1,71,30.15,10.0,East,8.1,-,N/A,,Clear,90,2013-03-09 22:55:00
6:15 PM,37.0,29.1,73,30.15,10.0,East,8.1,-,N/A,,Clear,90,2013-03-09 23:15:00
6:35 PM,36.7,29.3,75,30.14,10.0,East,10.4,-,N/A,,Scattered Clouds,100,2013-03-09 23:35:00
6:55 PM,36.5,29.5,76,30.13,10.0,East,9.2,-,N/A,,Mostly Cloudy,100,2013-03-09 23:55:00
7:15 PM,36.5,29.5,76,30.13,10.0,East,8.1,-,N/A,,Mostly Cloudy,100,2013-03-10 00:15:00
7:35 PM,36.5,29.8,77,30.12,10.0,East,8.1,-,N/A,,Overcast,100,2013-03-10 00:35:00
7:55 PM,36.5,30.2,78,30.12,10.0,East,9.2,-,N/A,,Overcast,100,2013-03-10 00:55:00
8:15 PM,36.5,30.6,79,30.11,10.0,ESE,8.1,-,N/A,,Overcast,110,2013-03-10 01:15:00
8:35 PM,36.5,30.7,80,30.10,10.0,East,8.1,-,N/A,,Overcast,100,2013-03-10 01:35:00
8:55 PM,36.5,30.9,80,30.10,10.0,East,3.5,-,N/A,,Overcast,90,2013-03-10 01:55:00
9:15 PM,36.5,31.1,81,30.10,10.0,Calm,Calm,-,N/A,,Overcast,0,2013-03-10 02:15:00
9:35 PM,36.5,31.1,81,30.10,10.0,Calm,Calm,-,N/A,,Overcast,0,2013-03-10 02:35:00
9:55 PM,36.5,31.5,82,30.09,10.0,Calm,Calm,-,N/A,,Overcast,0,2013-03-10 02:55:00
10:15 PM,36.0,31.5,84,30.08,10.0,East,3.5,-,N/A,,Mostly Cloudy,100,2013-03-10 03:15:00
10:35 PM,35.6,31.6,85,30.07,10.0,East,3.5,-,N/A,,Scattered Clouds,100,2013-03-10 03:35:00
10:55 PM,35.6,31.6,85,30.06,10.0,East,3.5,-,N/A,,Scattered Clouds,100,2013-03-10 03:55:00
11:15 PM,35.1,31.5,87,30.05,10.0,ESE,4.6,-,N/A,,Clear,110,2013-03-10 04:15:00
11:35 PM,35.1,31.6,87,30.04,10.0,ESE,3.5,-,N/A,,Clear,110,2013-03-10 04:35:00
11:55 PM,34.9,31.5,87,30.03,7.0,Calm,Calm,-,N/A,,Clear,0,2013-03-10 04:55:00